TimePDT,TemperatureF,Dew PointF,Humidity,Sea Level PressureIn,VisibilityMPH,Wind Direction,Wind SpeedMPH,Gust SpeedMPH,PrecipitationIn,Events,Conditions,WindDirDegrees,DateUTC
12:58 AM,51.8,47.8,86,30.07,10.0,Calm,Calm,-,N/A,,Clear,0,2013-03-19 07:58:00
1:58 AM,52.2,49.1,89,30.07,10.0,SW,5.8,-,N/A,,Overcast,230,2013-03-19 08:58:00
2:58 AM,51.6,48.9,90,30.07,10.0,SW,8.1,-,N/A,,Mostly Cloudy,220,2013-03-19 09:58:00
3:58 AM,49.3,49.1,99,30.06,10.0,WSW,6.9,-,N/A,,Clear,250,2013-03-19 10:58:00
4:58 AM,46.6,46.4,99,30.05,10.0,SW,8.1,-,N/A,,Partly Cloudy,230,2013-03-19 11:58:00
5:58 AM,49.1,48.7,99,30.07,10.0,WSW,11.5,-,N/A,,Clear,240,2013-03-19 12:58:00
6:58 AM,48.4,48.0,99,30.07,10.0,WSW,9.2,-,N/A,,Clear,240,2013-03-19 13:58:00
7:58 AM,49.8,49.6,99,30.08,10.0,WSW,12.7,-,N/A,,Clear,250,2013-03-19 14:58:00
8:58 AM,55.2,50.9,85,30.10,10.0,WSW,15.0,-,N/A,,Overcast,250,2013-03-19 15:58:00
9:58 AM,58.8,48.4,68,30.10,10.0,WSW,8.1,-,N/A,,Scattered Clouds,250,2013-03-19 16:58:00
10:58 AM,63.1,48.7,59,30.12,10.0,WSW,10.4,-,N/A,,Scattered Clouds,250,2013-03-19 17:58:00
11:58 AM,64.9,46.2,51,30.11,10.0,WSW,9.2,-,N/A,,Overcast,240,2013-03-19 18:58:00
12:58 PM,67.1,46.6,48,30.10,10.0,WSW,11.5,-,N/A,,Overcast,240,2013-03-19 19:58:00
1:58 PM,65.5,46.2,50,30.09,10.0,SW,10.4,-,N/A,,Overcast,230,2013-03-19 20:58:00
2:58 PM,66.9,51.3,57,30.08,10.0,WSW,15.0,-,N/A,,Mostly Cloudy,240,2013-03-19 21:58:00
3:58 PM,67.5,49.8,53,30.08,10.0,WSW,17.3,-,N/A,,Overcast,250,2013-03-19 22:58:00
4:55 PM,64.2,49.5,59,30.07,10.0,WSW,11.5,-,N/A,,Overcast,240,2013-03-19 23:55:00
4:58 PM,64.2,49.5,59,30.08,10.0,WSW,11.5,-,N/A,,Overcast,240,2013-03-19 23:58:00
5:55 PM,62.8,48.4,59,30.09,10.0,SW,12.7,-,N/A,,Mostly Cloudy,230,2013-03-20 00:55:00
5:58 PM,62.8,48.4,59,30.10,10.0,SW,12.7,-,N/A,,Mostly Cloudy,230,2013-03-20 00:58:00
6:58 PM,60.1,46.4,61,30.11,10.0,West,17.3,-,N/A,,Scattered Clouds,260,2013-03-20 01:58:00
7:09 PM,59.0,48.2,67,30.10,9.0,WSW,18.4,-,N/A,Rain,Light Rain,250,2013-03-20 02:09:00
7:19 PM,57.2,51.8,82,30.10,8.0,WSW,16.1,-,N/A,,Mostly Cloudy,240,2013-03-20 02:19:00
7:22 PM,57.2,53.6,88,30.11,9.0,WSW,16.1,-,N/A,Rain,Light Rain,240,2013-03-20 02:22:00
7:35 PM,55.4,53.6,94,30.11,7.0,WSW,15.0,-,N/A,,Overcast,240,2013-03-20 02:35:00
7:52 PM,53.6,50.0,88,30.11,10.0,West,15.0,-,N/A,Rain,Light Rain,260,2013-03-20 02:52:00
7:58 PM,53.2,48.2,83,30.13,10.0,West,16.1,-,0.02,Rain,Light Rain,270,2013-03-20 02:58:00
8:58 PM,49.1,48.7,99,30.12,10.0,SW,8.1,-,0.00,Rain,Light Rain,220,2013-03-20 03:58:00
9:34 PM,48.2,48.2,100,30.10,10.0,SW,6.9,-,N/A,,Mostly Cloudy,220,2013-03-20 04:34:00
9:43 PM,48.2,48.2,100,30.11,10.0,SW,4.6,-,N/A,,Light Drizzle,220,2013-03-20 04:43:00
9:58 PM,48.2,48.0,99,30.13,10.0,SW,3.5,-,0.01,Rain,Light Rain,230,2013-03-20 04:58:00
10:04 PM,48.2,48.2,100,30.10,10.0,SW,3.5,-,N/A,,Scattered Clouds,230,2013-03-20 05:04:00
10:58 PM,48.9,48.7,99,30.14,10.0,SSW,4.6,-,0.00,,Overcast,210,2013-03-20 05:58:00
11:58 PM,48.9,48.7,99,30.14,10.0,SSE,8.1,-,N/A,,Overcast,150,2013-03-20 06:58:00